Tracking 29040 objects as of 15-Jun-2024
HD Live streaming from Space Station
objects crossing your sky now

STARLINK-6235

Track STARLINK-6235 now!
10-day predictions
STARLINK-6235 is classified as:


NORAD ID: 57094
Int'l Code: 2023-088AY
Perigee: 565.4 km
Apogee: 567.0 km
Inclination: 43.0 °
Period: 95.8 minutes
Semi major axis: 6937 km
RCS: Unknown
Launch date: June 22, 2023
Source: United States (US)
Launch site: AIR FORCE WESTERN TEST RANGE (AFWTR)
Your satellite tracking list
Your tracking list is empty




NASA's NSSDC Master Catalog

Two Line Element Set (TLE):
1 57094U 23088AY  24166.69490052  .00000598  00000-0  59357-4 0  9995
2 57094  43.0013 293.7402 0001125 264.8380  95.2334 15.02537582 55302
Source of the keplerian elements: AFSPC